LXJ347 KPWK-KSSI

Flight info

Callsign LXJ347
Flight time 1h 52m
Altitude 45000
Route MONKZ5 ERECO IIU VXV IRQ SAV
Aircraft E55P/M-SBDGRW/LB2

Departure

Time 2026-05-06 10:50
Airport Chicago Executive Airport (KPWK)

Arrival

Time 2026-05-06 12:42
Airport St Simons Island Airport (KSSI)
Time Latitude Longitude Altitude Speed Heading
2026-05-06 10:34 42.11642 -87.90080 639 ft 0 kts 69°
2026-05-06 10:45 42.11650 -87.90063 639 ft 6 kts 45°
2026-05-06 10:45 42.11699 -87.90068 638 ft 7 kts 339°
2026-05-06 10:45 42.11729 -87.90112 639 ft 7 kts 258°
2026-05-06 10:45 42.11708 -87.90185 640 ft 8 kts 256°
2026-05-06 10:46 42.11742 -87.90243 640 ft 9 kts 338°
2026-05-06 10:46 42.11816 -87.90282 640 ft 13 kts 339°
2026-05-06 10:46 42.11913 -87.90333 639 ft 16 kts 339°
2026-05-06 10:46 42.12030 -87.90395 637 ft 19 kts 339°
2026-05-06 10:47 42.12155 -87.90461 637 ft 19 kts 339°
2026-05-06 10:47 42.12280 -87.90526 638 ft 18 kts 338°
2026-05-06 10:47 42.12352 -87.90573 638 ft 4 kts 306°
2026-05-06 10:47 42.12356 -87.90601 639 ft 0 kts 262°
2026-05-06 10:48 42.12356 -87.90602 639 ft 0 kts 262°
2026-05-06 10:48 42.12356 -87.90603 639 ft 0 kts 262°
2026-05-06 10:49 42.12350 -87.90630 639 ft 5 kts 249°
2026-05-06 10:49 42.12329 -87.90688 640 ft 7 kts 228°
2026-05-06 10:49 42.12277 -87.90684 640 ft 12 kts 159°
2026-05-06 10:49 42.11958 -87.90516 638 ft 89 kts 158°
2026-05-06 10:50 42.11200 -87.90117 834 ft 134 kts 158°
2026-05-06 10:50 42.10331 -87.89539 1390 ft 149 kts 135°
2026-05-06 10:50 42.09953 -87.88215 1698 ft 167 kts 79°
2026-05-06 10:50 42.10535 -87.86856 1976 ft 177 kts 41°
2026-05-06 10:51 42.11536 -87.85798 2014 ft 185 kts 36°
2026-05-06 10:51 42.12590 -87.84766 1999 ft 191 kts 36°
2026-05-06 10:51 42.13682 -87.83695 2043 ft 194 kts 36°
2026-05-06 10:51 42.14780 -87.82607 2431 ft 197 kts 36°
2026-05-06 10:52 42.15858 -87.81526 3170 ft 197 kts 35°
2026-05-06 10:52 42.16991 -87.80397 3827 ft 214 kts 34°
2026-05-06 10:52 42.18222 -87.79152 4508 ft 231 kts 35°
2026-05-06 10:52 42.19539 -87.77801 5221 ft 245 kts 36°
2026-05-06 10:53 42.20897 -87.76331 5979 ft 257 kts 36°
2026-05-06 10:53 42.22293 -87.74771 6756 ft 268 kts 36°
2026-05-06 10:53 42.23546 -87.72897 7502 ft 283 kts 59°
2026-05-06 10:53 42.23957 -87.70292 8271 ft 297 kts 92°
2026-05-06 10:54 42.23291 -87.67652 9108 ft 301 kts 126°
2026-05-06 10:54 42.21757 -87.65821 9946 ft 297 kts 157°
2026-05-06 10:54 42.19797 -87.65153 10638 ft 296 kts 180°
2026-05-06 10:54 42.17742 -87.64953 11372 ft 300 kts 186°
2026-05-06 10:55 42.15722 -87.65505 12168 ft 292 kts 205°
2026-05-06 10:55 42.13859 -87.66435 13175 ft 285 kts 208°
2026-05-06 10:55 42.12065 -87.67396 14085 ft 282 kts 208°
2026-05-06 10:55 42.10246 -87.68381 15018 ft 278 kts 209°
2026-05-06 10:56 42.08513 -87.69316 16081 ft 268 kts 210°
2026-05-06 10:56 42.06837 -87.70222 17132 ft 258 kts 211°
2026-05-06 10:56 42.05211 -87.71107 17994 ft 254 kts 211°
2026-05-06 10:56 42.03584 -87.71993 18782 ft 253 kts 211°
2026-05-06 10:57 42.01977 -87.72865 19467 ft 254 kts 211°
2026-05-06 10:57 42.00326 -87.73759 20085 ft 257 kts 211°
2026-05-06 10:57 41.98683 -87.74646 20683 ft 260 kts 211°
2026-05-06 10:57 41.96997 -87.75561 21275 ft 263 kts 211°
2026-05-06 10:58 41.95291 -87.76477 21847 ft 267 kts 211°
2026-05-06 10:58 41.93560 -87.77417 22470 ft 269 kts 211°
2026-05-06 10:58 41.91836 -87.78342 23148 ft 268 kts 211°
2026-05-06 10:58 41.90157 -87.79249 23744 ft 269 kts 211°
2026-05-06 10:59 41.88289 -87.79809 24264 ft 296 kts 189°
2026-05-06 10:59 41.86216 -87.78973 24793 ft 336 kts 161°
2026-05-06 10:59 41.84261 -87.77233 25344 ft 336 kts 164°
2026-05-06 10:59 41.82211 -87.75738 25908 ft 338 kts 165°
2026-05-06 11:00 41.80129 -87.74245 26377 ft 340 kts 165°
2026-05-06 11:00 41.77334 -87.72248 26975 ft 346 kts 166°
2026-05-06 11:00 41.75924 -87.71241 27265 ft 348 kts 166°
2026-05-06 11:00 41.73787 -87.69717 27747 ft 350 kts 167°
2026-05-06 11:01 41.71630 -87.68182 28256 ft 350 kts 167°
2026-05-06 11:01 41.69465 -87.66640 28674 ft 354 kts 166°
2026-05-06 11:01 41.67285 -87.65090 29072 ft 359 kts 166°
2026-05-06 11:01 41.65065 -87.63605 29499 ft 350 kts 174°
2026-05-06 11:02 41.62766 -87.62865 29973 ft 336 kts 184°
2026-05-06 11:02 41.60499 -87.62228 30555 ft 333 kts 184°
2026-05-06 11:02 41.58258 -87.61597 30939 ft 331 kts 185°
2026-05-06 11:02 41.56007 -87.60970 31336 ft 329 kts 185°
2026-05-06 11:03 41.53746 -87.60336 31626 ft 333 kts 186°
2026-05-06 11:03 41.51485 -87.59711 31925 ft 336 kts 187°
2026-05-06 11:03 41.49197 -87.59064 32386 ft 334 kts 188°
2026-05-06 11:03 41.46920 -87.58432 32752 ft 334 kts 189°
2026-05-06 11:04 41.44617 -87.57794 33066 ft 337 kts 189°
2026-05-06 11:04 41.42291 -87.57162 33348 ft 337 kts 191°
2026-05-06 11:04 41.40005 -87.56760 33634 ft 332 kts 195°
2026-05-06 11:04 41.37709 -87.56370 33903 ft 335 kts 195°
2026-05-06 11:05 41.35367 -87.55977 34189 ft 337 kts 194°
2026-05-06 11:05 41.33037 -87.55576 34485 ft 339 kts 194°
2026-05-06 11:05 41.30693 -87.55167 34797 ft 340 kts 194°
2026-05-06 11:05 41.28331 -87.54755 35138 ft 339 kts 194°
2026-05-06 11:06 41.26008 -87.54352 35446 ft 339 kts 194°
2026-05-06 11:06 41.23687 -87.53943 36108 ft 338 kts 194°
2026-05-06 11:06 41.21354 -87.53543 36500 ft 337 kts 193°
2026-05-06 11:06 41.19013 -87.53057 36900 ft 346 kts 189°
2026-05-06 11:07 41.16670 -87.52399 37317 ft 343 kts 189°
2026-05-06 11:07 41.14344 -87.51765 37722 ft 340 kts 189°
2026-05-06 11:07 41.12041 -87.51149 38113 ft 339 kts 190°
2026-05-06 11:07 41.09734 -87.50530 38464 ft 338 kts 190°
2026-05-06 11:08 41.07433 -87.49915 38801 ft 337 kts 189°
2026-05-06 11:08 41.05118 -87.49294 39155 ft 336 kts 189°
2026-05-06 11:08 41.02834 -87.48687 39452 ft 337 kts 189°
2026-05-06 11:08 41.00504 -87.48068 39764 ft 338 kts 189°
2026-05-06 11:09 40.98222 -87.47461 40064 ft 340 kts 188°
2026-05-06 11:09 40.95905 -87.46837 40342 ft 340 kts 188°
2026-05-06 11:09 40.93566 -87.46211 40619 ft 341 kts 187°
2026-05-06 11:09 40.91227 -87.45592 40900 ft 341 kts 187°
2026-05-06 11:10 40.88925 -87.44972 41208 ft 340 kts 187°
2026-05-06 11:10 40.86601 -87.44351 41575 ft 339 kts 187°
2026-05-06 11:10 40.84276 -87.43736 41926 ft 337 kts 186°
2026-05-06 11:10 40.81991 -87.43125 42291 ft 336 kts 186°
2026-05-06 11:11 40.79723 -87.42525 42634 ft 334 kts 185°
2026-05-06 11:11 40.77468 -87.41926 42950 ft 332 kts 185°
2026-05-06 11:11 40.75187 -87.41316 43257 ft 331 kts 185°
2026-05-06 11:11 40.72944 -87.40722 43531 ft 330 kts 185°
2026-05-06 11:12 40.70720 -87.40133 43775 ft 329 kts 184°
2026-05-06 11:12 40.68483 -87.39542 44019 ft 329 kts 184°
2026-05-06 11:12 40.66214 -87.38940 44257 ft 329 kts 183°
2026-05-06 11:12 40.63998 -87.38354 44488 ft 329 kts 184°
2026-05-06 11:13 40.61726 -87.37753 44690 ft 330 kts 183°
2026-05-06 11:13 40.59473 -87.37157 44875 ft 331 kts 183°
2026-05-06 11:13 40.57227 -87.36565 44968 ft 336 kts 183°
2026-05-06 11:14 40.52564 -87.35336 44972 ft 349 kts 182°
2026-05-06 11:14 40.47724 -87.34061 44953 ft 360 kts 182°
2026-05-06 11:15 40.42765 -87.32317 44962 ft 385 kts 173°
2026-05-06 11:15 40.37671 -87.29898 44939 ft 394 kts 173°
2026-05-06 11:16 40.32442 -87.27443 44947 ft 405 kts 173°
2026-05-06 11:16 40.27084 -87.24929 44945 ft 416 kts 173°
2026-05-06 11:17 40.21572 -87.22354 44943 ft 425 kts 173°
2026-05-06 11:17 40.16002 -87.19750 44944 ft 427 kts 173°
2026-05-06 11:18 40.10383 -87.17130 44938 ft 428 kts 173°
2026-05-06 11:18 40.04805 -87.14534 44934 ft 429 kts 173°
2026-05-06 11:19 39.99171 -87.11901 44930 ft 433 kts 171°
2026-05-06 11:19 39.96492 -87.09912 44966 ft 452 kts 158°
2026-05-06 11:19 39.93886 -87.07673 44927 ft 451 kts 159°
2026-05-06 11:20 39.87752 -87.02498 44941 ft 452 kts 159°
2026-05-06 11:20 39.83362 -86.98809 44950 ft 453 kts 159°
2026-05-06 11:21 39.78050 -86.94354 44946 ft 455 kts 159°
2026-05-06 11:21 39.72734 -86.89902 44948 ft 457 kts 160°
2026-05-06 11:22 39.67363 -86.85415 44955 ft 459 kts 159°
2026-05-06 11:22 39.62022 -86.80958 44969 ft 462 kts 160°
2026-05-06 11:23 39.56596 -86.76439 44944 ft 465 kts 159°
2026-05-06 11:23 39.51181 -86.71938 44937 ft 466 kts 159°
2026-05-06 11:24 39.45714 -86.67400 44946 ft 467 kts 160°
2026-05-06 11:24 39.40275 -86.62899 44943 ft 468 kts 160°
2026-05-06 11:25 39.34761 -86.58344 44951 ft 470 kts 160°
2026-05-06 11:25 39.29280 -86.53819 44960 ft 473 kts 160°
2026-05-06 11:26 39.23705 -86.49237 44947 ft 475 kts 159°
2026-05-06 11:26 39.18151 -86.44672 44946 ft 477 kts 160°
2026-05-06 11:27 39.12560 -86.40081 44959 ft 479 kts 160°
2026-05-06 11:27 39.06959 -86.35500 44948 ft 481 kts 160°
2026-05-06 11:28 39.01302 -86.30876 44924 ft 481 kts 160°
2026-05-06 11:28 38.95681 -86.26289 44926 ft 480 kts 160°
2026-05-06 11:29 38.90053 -86.21705 44920 ft 480 kts 161°
2026-05-06 11:29 38.84444 -86.17149 44912 ft 478 kts 161°
2026-05-06 11:30 38.78829 -86.12601 44921 ft 478 kts 161°
2026-05-06 11:30 38.73231 -86.08070 44931 ft 478 kts 161°
2026-05-06 11:31 38.67620 -86.03539 44915 ft 479 kts 161°
2026-05-06 11:31 38.62001 -85.99007 44922 ft 478 kts 161°
2026-05-06 11:32 38.56379 -85.94481 44912 ft 478 kts 161°
2026-05-06 11:32 38.50766 -85.89975 44917 ft 478 kts 161°
2026-05-06 11:33 38.45159 -85.85478 44938 ft 479 kts 161°
2026-05-06 11:33 38.39527 -85.80971 44929 ft 480 kts 161°
2026-05-06 11:34 38.33876 -85.76459 44935 ft 481 kts 161°
2026-05-06 11:34 38.28184 -85.71915 44963 ft 482 kts 161°
2026-05-06 11:35 38.22492 -85.67394 44942 ft 484 kts 161°
2026-05-06 11:35 38.16801 -85.62869 44947 ft 485 kts 161°
2026-05-06 11:36 38.11076 -85.58333 44946 ft 486 kts 161°
2026-05-06 11:36 38.05337 -85.53782 44943 ft 487 kts 161°
2026-05-06 11:37 37.99604 -85.49261 44928 ft 489 kts 161°
2026-05-06 11:37 37.93847 -85.44714 44925 ft 491 kts 161°
2026-05-06 11:38 37.88066 -85.40156 44918 ft 488 kts 161°
2026-05-06 11:38 37.82337 -85.35658 44902 ft 483 kts 161°
2026-05-06 11:39 37.76692 -85.31226 44890 ft 476 kts 162°
2026-05-06 11:39 37.71095 -85.26849 44910 ft 473 kts 162°
2026-05-06 11:40 37.65521 -85.22495 44901 ft 470 kts 162°
2026-05-06 11:40 37.59980 -85.18166 44892 ft 468 kts 162°
2026-05-06 11:41 37.54462 -85.13870 44892 ft 468 kts 162°
2026-05-06 11:41 37.48917 -85.09560 44899 ft 469 kts 163°
2026-05-06 11:42 37.43346 -85.05241 44902 ft 471 kts 162°
2026-05-06 11:42 37.38041 -85.00285 44947 ft 502 kts 141°
2026-05-06 11:43 37.33578 -84.93433 44891 ft 507 kts 139°
2026-05-06 11:43 37.29134 -84.86625 44901 ft 509 kts 139°
2026-05-06 11:44 37.22390 -84.76298 44897 ft 512 kts 139°
2026-05-06 11:44 37.17612 -84.69773 44901 ft 504 kts 146°
2026-05-06 11:45 37.12531 -84.63828 44921 ft 495 kts 152°
2026-05-06 11:45 37.07160 -84.58491 44906 ft 493 kts 152°
2026-05-06 11:46 37.02026 -84.52710 44860 ft 512 kts 140°
2026-05-06 11:46 36.97868 -84.45344 44910 ft 524 kts 128°
2026-05-06 11:47 36.94394 -84.37332 44938 ft 529 kts 122°
2026-05-06 11:47 36.90673 -84.29526 44899 ft 514 kts 139°
2026-05-06 11:48 36.88158 -84.26424 44892 ft 494 kts 153°
2026-05-06 11:48 36.85274 -84.24419 44925 ft 456 kts 176°
2026-05-06 11:48 36.82322 -84.23338 44890 ft 442 kts 182°
2026-05-06 11:48 36.79316 -84.22530 44890 ft 437 kts 185°
2026-05-06 11:49 36.73404 -84.21503 44886 ft 428 kts 190°
2026-05-06 11:49 36.67511 -84.20536 44876 ft 427 kts 189°
2026-05-06 11:50 36.64559 -84.19897 44851 ft 448 kts 176°
2026-05-06 11:50 36.61676 -84.18140 44973 ft 470 kts 162°
2026-05-06 11:50 36.55877 -84.14642 44899 ft 463 kts 169°
2026-05-06 11:51 36.50073 -84.11235 44922 ft 465 kts 167°
2026-05-06 11:51 36.44304 -84.07485 44932 ft 468 kts 165°
2026-05-06 11:52 36.38620 -84.03497 44873 ft 478 kts 161°
2026-05-06 11:52 36.33101 -83.98949 44933 ft 477 kts 159°
2026-05-06 11:53 36.27561 -83.94429 44922 ft 477 kts 159°
2026-05-06 11:53 36.22145 -83.89668 44772 ft 486 kts 152°
2026-05-06 11:54 36.19478 -83.87139 45013 ft 480 kts 153°
2026-05-06 11:54 36.16822 -83.84575 44795 ft 483 kts 149°
2026-05-06 11:54 36.14178 -83.82069 44950 ft 478 kts 154°
2026-05-06 11:54 36.11521 -83.79597 45115 ft 475 kts 154°
2026-05-06 11:55 36.08901 -83.77102 44926 ft 482 kts 152°
2026-05-06 11:55 36.06232 -83.74590 44849 ft 483 kts 155°
2026-05-06 11:55 36.03596 -83.72130 45023 ft 479 kts 154°
2026-05-06 11:55 36.00929 -83.69652 44996 ft 478 kts 153°
2026-05-06 11:56 35.98251 -83.67173 44875 ft 482 kts 153°
2026-05-06 11:56 35.95567 -83.64687 44925 ft 483 kts 154°
2026-05-06 11:56 35.92928 -83.62214 45077 ft 481 kts 152°
2026-05-06 11:56 35.90251 -83.59702 44899 ft 483 kts 152°
2026-05-06 11:57 35.84887 -83.54734 45004 ft 483 kts 152°
2026-05-06 11:57 35.79491 -83.49741 44945 ft 485 kts 153°
2026-05-06 11:58 35.73909 -83.45375 44978 ft 471 kts 163°
2026-05-06 11:58 35.68075 -83.41577 45000 ft 474 kts 163°
2026-05-06 11:59 35.62265 -83.37788 44992 ft 477 kts 163°
2026-05-06 11:59 35.56385 -83.33962 44997 ft 480 kts 163°
2026-05-06 12:00 35.50467 -83.30106 45021 ft 480 kts 163°
2026-05-06 12:00 35.44572 -83.26283 45034 ft 480 kts 163°
2026-05-06 12:01 35.38664 -83.22452 45038 ft 481 kts 163°
2026-05-06 12:01 35.32730 -83.18618 45046 ft 482 kts 163°
2026-05-06 12:02 35.26781 -83.14774 45056 ft 483 kts 163°
2026-05-06 12:02 35.20849 -83.10947 45068 ft 484 kts 163°
2026-05-06 12:03 35.14870 -83.07103 45074 ft 485 kts 163°
2026-05-06 12:03 35.08889 -83.03258 45057 ft 486 kts 163°
2026-05-06 12:04 35.02873 -82.99403 45046 ft 488 kts 163°
2026-05-06 12:04 34.96891 -82.95570 45032 ft 489 kts 162°
2026-05-06 12:05 34.90829 -82.91688 45035 ft 489 kts 163°
2026-05-06 12:05 34.84833 -82.87869 45024 ft 489 kts 161°
2026-05-06 12:06 34.78795 -82.84014 45024 ft 490 kts 162°
2026-05-06 12:06 34.72749 -82.80167 45030 ft 489 kts 162°
2026-05-06 12:07 34.66759 -82.76369 45027 ft 489 kts 162°
2026-05-06 12:07 34.60737 -82.72550 45040 ft 489 kts 162°
2026-05-06 12:08 34.54715 -82.68733 45023 ft 487 kts 162°
2026-05-06 12:08 34.48732 -82.64955 45026 ft 485 kts 162°
2026-05-06 12:09 34.42758 -82.61182 45019 ft 482 kts 162°
2026-05-06 12:09 34.36836 -82.57455 45018 ft 479 kts 162°
2026-05-06 12:10 34.30961 -82.53758 45031 ft 478 kts 162°
2026-05-06 12:10 34.25040 -82.50038 45048 ft 481 kts 162°
2026-05-06 12:11 34.19114 -82.46327 45038 ft 482 kts 162°
2026-05-06 12:11 34.13149 -82.42594 44896 ft 483 kts 162°
2026-05-06 12:12 34.10146 -82.40710 44448 ft 486 kts 162°
2026-05-06 12:12 34.07168 -82.38856 43814 ft 487 kts 162°
2026-05-06 12:12 34.04144 -82.36968 43022 ft 491 kts 162°
2026-05-06 12:12 34.01072 -82.35054 42248 ft 494 kts 162°
2026-05-06 12:13 33.98009 -82.33141 41443 ft 495 kts 163°
2026-05-06 12:13 33.94981 -82.31259 40644 ft 496 kts 163°
2026-05-06 12:13 33.91898 -82.29336 39860 ft 497 kts 162°
2026-05-06 12:13 33.88810 -82.27420 39086 ft 496 kts 162°
2026-05-06 12:14 33.85777 -82.25532 38475 ft 494 kts 162°
2026-05-06 12:14 33.82715 -82.23634 38028 ft 493 kts 162°
2026-05-06 12:14 33.79686 -82.21754 37587 ft 492 kts 162°
2026-05-06 12:14 33.76652 -82.19882 37146 ft 492 kts 162°
2026-05-06 12:15 33.73607 -82.17994 37039 ft 493 kts 162°
2026-05-06 12:15 33.70578 -82.16116 37029 ft 494 kts 162°
2026-05-06 12:15 33.64464 -82.12270 37026 ft 495 kts 162°
2026-05-06 12:16 33.58340 -82.08424 37039 ft 497 kts 162°
2026-05-06 12:16 33.52231 -82.04597 37054 ft 498 kts 161°
2026-05-06 12:17 33.46072 -82.00739 37056 ft 500 kts 161°
2026-05-06 12:17 33.39927 -81.96905 37046 ft 501 kts 161°
2026-05-06 12:18 33.33731 -81.93035 37043 ft 502 kts 161°
2026-05-06 12:18 33.27532 -81.89179 37046 ft 503 kts 161°
2026-05-06 12:19 33.21313 -81.85307 37047 ft 504 kts 161°
2026-05-06 12:19 33.15103 -81.81455 37052 ft 506 kts 161°
2026-05-06 12:20 33.08822 -81.77565 37028 ft 509 kts 161°
2026-05-06 12:20 33.05697 -81.75628 36816 ft 510 kts 161°
2026-05-06 12:20 33.02542 -81.73676 36341 ft 514 kts 161°
2026-05-06 12:21 32.99379 -81.71721 35746 ft 514 kts 161°
2026-05-06 12:21 32.96199 -81.69759 35007 ft 516 kts 160°
2026-05-06 12:21 32.93000 -81.67785 34280 ft 518 kts 160°
2026-05-06 12:21 32.89782 -81.65803 33560 ft 519 kts 160°
2026-05-06 12:22 32.86593 -81.63837 32881 ft 520 kts 159°
2026-05-06 12:22 32.83348 -81.61844 32237 ft 522 kts 159°
2026-05-06 12:22 32.80127 -81.59856 31596 ft 524 kts 159°
2026-05-06 12:22 32.76912 -81.57885 30942 ft 525 kts 158°
2026-05-06 12:23 32.73661 -81.55891 30280 ft 526 kts 158°
2026-05-06 12:23 32.70427 -81.53902 29618 ft 526 kts 158°
2026-05-06 12:23 32.67212 -81.51929 28953 ft 525 kts 158°
2026-05-06 12:23 32.63975 -81.49952 28272 ft 523 kts 157°
2026-05-06 12:24 32.60750 -81.47975 27585 ft 520 kts 157°
2026-05-06 12:24 32.57542 -81.46018 26893 ft 517 kts 157°
2026-05-06 12:24 32.54356 -81.44066 26203 ft 513 kts 156°
2026-05-06 12:24 32.51210 -81.42141 25547 ft 503 kts 156°
2026-05-06 12:25 32.48157 -81.40286 24866 ft 493 kts 156°
2026-05-06 12:25 32.45132 -81.38435 24184 ft 483 kts 156°
2026-05-06 12:25 32.42166 -81.36636 23520 ft 475 kts 156°
2026-05-06 12:25 32.39280 -81.34873 22863 ft 468 kts 156°
2026-05-06 12:26 32.36414 -81.33131 22187 ft 463 kts 156°
2026-05-06 12:26 32.33548 -81.31386 21502 ft 457 kts 156°
2026-05-06 12:26 32.30748 -81.29688 20830 ft 453 kts 156°
2026-05-06 12:26 32.27990 -81.28011 20161 ft 448 kts 156°
2026-05-06 12:27 32.25204 -81.26324 19481 ft 444 kts 156°
2026-05-06 12:27 32.22492 -81.24680 18814 ft 439 kts 156°
2026-05-06 12:27 32.19800 -81.23049 18146 ft 435 kts 156°
2026-05-06 12:27 32.17106 -81.21417 17472 ft 431 kts 156°
2026-05-06 12:28 32.14328 -81.20327 16789 ft 416 kts 178°
2026-05-06 12:28 32.11525 -81.20519 16325 ft 396 kts 195°
2026-05-06 12:28 32.08823 -81.21032 15838 ft 397 kts 194°
2026-05-06 12:28 32.06101 -81.21572 15361 ft 397 kts 194°
2026-05-06 12:29 32.03346 -81.21965 14876 ft 399 kts 188°
2026-05-06 12:29 32.00594 -81.22200 14402 ft 397 kts 188°
2026-05-06 12:29 31.97836 -81.22411 13914 ft 394 kts 187°
2026-05-06 12:29 31.95131 -81.22617 13425 ft 389 kts 187°
2026-05-06 12:30 31.92442 -81.22820 12955 ft 384 kts 187°
2026-05-06 12:30 31.89766 -81.23017 12491 ft 379 kts 187°
2026-05-06 12:30 31.87182 -81.23209 12032 ft 375 kts 187°
2026-05-06 12:30 31.84564 -81.23409 11564 ft 370 kts 186°
2026-05-06 12:31 31.82023 -81.23598 11121 ft 365 kts 186°
2026-05-06 12:31 31.79534 -81.23785 10975 ft 354 kts 186°
2026-05-06 12:31 31.77123 -81.23963 10955 ft 342 kts 187°
2026-05-06 12:31 31.74762 -81.24143 10902 ft 330 kts 187°
2026-05-06 12:32 31.72524 -81.24306 10728 ft 317 kts 186°
2026-05-06 12:32 31.70346 -81.24472 10338 ft 314 kts 186°
2026-05-06 12:32 31.68168 -81.24638 9945 ft 310 kts 186°
2026-05-06 12:32 31.66015 -81.24799 9551 ft 307 kts 186°
2026-05-06 12:33 31.63901 -81.24957 9179 ft 303 kts 186°
2026-05-06 12:33 31.61821 -81.25111 8813 ft 300 kts 186°
2026-05-06 12:33 31.59748 -81.25269 8447 ft 297 kts 186°
2026-05-06 12:33 31.57673 -81.25420 8078 ft 294 kts 186°
2026-05-06 12:34 31.55660 -81.25572 7708 ft 284 kts 186°
2026-05-06 12:34 31.53731 -81.25713 7341 ft 276 kts 186°
2026-05-06 12:34 31.51830 -81.25856 6969 ft 268 kts 186°
2026-05-06 12:34 31.50004 -81.25990 6601 ft 263 kts 187°
2026-05-06 12:35 31.48180 -81.26130 6228 ft 258 kts 186°
2026-05-06 12:35 31.46409 -81.26259 5882 ft 252 kts 187°
2026-05-06 12:35 31.44684 -81.26389 5566 ft 247 kts 187°
2026-05-06 12:35 31.42994 -81.26514 5269 ft 241 kts 187°
2026-05-06 12:36 31.41327 -81.26640 4968 ft 235 kts 186°
2026-05-06 12:36 31.39701 -81.26762 4669 ft 231 kts 186°
2026-05-06 12:36 31.38125 -81.26878 4377 ft 227 kts 186°
2026-05-06 12:36 31.36553 -81.26994 4102 ft 222 kts 186°
2026-05-06 12:37 31.35033 -81.27104 3823 ft 218 kts 186°
2026-05-06 12:37 31.33532 -81.27227 3550 ft 211 kts 186°
2026-05-06 12:37 31.32091 -81.27344 3277 ft 207 kts 185°
2026-05-06 12:37 31.30661 -81.27430 3008 ft 202 kts 185°
2026-05-06 12:38 31.29280 -81.27580 2782 ft 195 kts 197°
2026-05-06 12:38 31.28155 -81.28372 2536 ft 190 kts 217°
2026-05-06 12:38 31.27091 -81.29280 2318 ft 185 kts 214°
2026-05-06 12:38 31.26059 -81.30131 2117 ft 180 kts 215°
2026-05-06 12:39 31.25052 -81.30987 1973 ft 177 kts 215°
2026-05-06 12:39 31.24060 -81.31817 1973 ft 171 kts 215°
2026-05-06 12:39 31.23138 -81.32600 1840 ft 162 kts 216°
2026-05-06 12:39 31.22237 -81.33385 1616 ft 160 kts 216°
2026-05-06 12:40 31.21379 -81.34130 1415 ft 143 kts 213°
2026-05-06 12:40 31.20618 -81.34766 1226 ft 128 kts 214°
2026-05-06 12:40 31.19919 -81.35358 1026 ft 120 kts 214°
2026-05-06 12:40 31.19261 -81.35918 868 ft 114 kts 214°
2026-05-06 12:41 31.18630 -81.36449 728 ft 110 kts 215°
2026-05-06 12:41 31.18019 -81.36968 589 ft 107 kts 214°
2026-05-06 12:41 31.17417 -81.37479 463 ft 106 kts 214°
2026-05-06 12:41 31.16818 -81.37987 323 ft 106 kts 214°
2026-05-06 12:42 31.16216 -81.38499 171 ft 106 kts 213°
2026-05-06 12:42 31.15625 -81.39002 39 ft 103 kts 214°
2026-05-06 12:42 31.15111 -81.39439 14 ft 70 kts 214°
2026-05-06 12:42 31.14809 -81.39694 11 ft 46 kts 216°
2026-05-06 12:43 31.14627 -81.39846 11 ft 16 kts 212°
2026-05-06 12:43 31.14581 -81.39793 11 ft 13 kts 42°
2026-05-06 12:43 31.14665 -81.39718 11 ft 17 kts 37°
2026-05-06 12:43 31.14773 -81.39610 12 ft 22 kts 41°
2026-05-06 12:44 31.14906 -81.39473 13 ft 27 kts 41°
2026-05-06 12:44 31.15051 -81.39324 14 ft 28 kts 43°
2026-05-06 12:44 31.15198 -81.39172 14 ft 28 kts 41°
2026-05-06 12:44 31.15348 -81.39028 14 ft 28 kts 36°
2026-05-06 12:45 31.15489 -81.38908 17 ft 19 kts 37°
2026-05-06 12:45 31.15554 -81.38824 17 ft 11 kts 74°
2026-05-06 12:45 31.15521 -81.38727 15 ft 3 kts 154°
2026-05-06 12:46 31.15516 -81.38724 15 ft 0 kts 154°